User: anonymous   Login
Location: Unspecified
(0.0000°N, 0.0000°E)
Time: 09:46:01
(UTC+00:00)
Language:

Kosmos-1709 - Orbit

View from above orbital plane
View from above orbital plane
View from above satellite
View from above satellite

Ground track
Ground track

The orbit data is extracted from the following two-line orbital elements,

1 16368U 85116A   18175.89631138  .00000003  00000-0 -12970-4 0  9993
2 16368  82.9463 109.4834 0034343 330.5732  89.0840 13.74458250630756
Epoch (UTC): 24 June 2018 21:30:41
Eccentricity: 0.0034343
inclination: 82.9463°
perigee height: 958 km
apogee height: 1009 km
right ascension of ascending node: 109.4834°
argument of perigee: 330.5732°
revolutions per day: 13.74458250
mean anomaly at epoch: 89.0840°
orbit number at epoch: 63075

The dashed part of the orbit path shows where the satellite is in the earth's shadow,  

DLR